| time (UTC) | temp C | wind direction | speed KPH | gust KPH | rain 1hr cm | rain 24hr cm | rain mn cm | humidity % | barometer mb |
| 20260906220604 | 22 | 26 | 6.4 | 19.3 | 0.00 | 0.00 | 0.00 | 59 | 1017.0 |
| 20260906220104 | 22 | 99 | 4.8 | 12.9 | 0.00 | 0.00 | 0.00 | 59 | 1016.9 |
| 20260906215104 | 22 | 32 | 4.8 | 14.5 | 0.00 | 0.00 | 0.00 | 58 | 1016.9 |
| 20260906214604 | 22 | 94 | 8.0 | 19.3 | 0.00 | 0.00 | 0.00 | 58 | 1016.8 |
| 20260906214106 | 23 | 64 | 8.0 | 19.3 | 0.00 | 0.00 | 0.00 | 59 | 1016.8 |
| 20260906213605 | 23 | 70 | 8.0 | 16.1 | 0.00 | 0.00 | 0.00 | 59 | 1016.8 |
| 20260906213104 | 23 | 102 | 6.4 | 16.1 | 0.00 | 0.00 | 0.00 | 58 | 1016.8 |
| 20260906212604 | 23 | 81 | 4.8 | 16.1 | 0.00 | 0.00 | 0.00 | 56 | 1016.7 |
| 20260906211104 | 23 | 40 | 4.8 | 14.5 | 0.00 | 0.00 | 0.00 | 56 | 1016.6 |
| 20260906210604 | 23 | 62 | 8.0 | 22.5 | 0.00 | 0.00 | 0.00 | 55 | 1016.6 |
| 20260906210104 | 23 | 100 | 6.4 | 19.3 | 0.00 | 0.00 | 0.00 | 55 | 1016.5 |
| 20260906205604 | 23 | 27 | 4.8 | 9.7 | 0.00 | 0.00 | 0.00 | 56 | 1016.5 |
| 20260906205104 | 23 | 26 | 9.7 | 19.3 | 0.00 | 0.00 | 0.00 | 56 | 1016.5 |
| 20260906204604 | 23 | 79 | 8.0 | 20.9 | 0.00 | 0.00 | 0.00 | 56 | 1016.4 |
| 20260906204104 | 23 | 27 | 9.7 | 20.9 | 0.00 | 0.00 | 0.00 | 55 | 1016.5 |
| 20260906203604 | 24 | 28 | 6.4 | 19.3 | 0.00 | 0.00 | 0.00 | 56 | 1016.5 |
| 20260906203105 | 24 | 55 | 11.3 | 16.1 | 0.00 | 0.00 | 0.00 | 55 | 1016.5 |
| 20260906202604 | 24 | 47 | 8.0 | 19.3 | 0.00 | 0.00 | 0.00 | 55 | 1016.5 |
| 20260906201103 | 24 | 39 | 8.0 | 19.3 | 0.00 | 0.00 | 0.00 | 55 | 1016.4 |
| 20260906200604 | 24 | 54 | 9.7 | 19.3 | 0.00 | 0.00 | 0.00 | 55 | 1016.4 |
| 20260906200105 | 24 | 68 | 9.7 | 27.4 | 0.00 | 0.00 | 0.00 | 53 | 1016.4 |
| 20260906195605 | 24 | 82 | 8.0 | 19.3 | 0.00 | 0.00 | 0.00 | 54 | 1016.4 |
| 20260906195104 | 25 | 18 | 9.7 | 16.1 | 0.00 | 0.00 | 0.00 | 53 | 1016.3 |
| 20260906194104 | 24 | 33 | 8.0 | 14.5 | 0.00 | 0.00 | 0.00 | 53 | 1016.3 |
| 20260906193605 | 24 | 72 | 8.0 | 19.3 | 0.00 | 0.00 | 0.00 | 53 | 1016.2 |
| 20260906193104 | 24 | 110 | 11.3 | 25.7 | 0.00 | 0.00 | 0.00 | 54 | 1016.2 |
| 20260906192604 | 24 | 28 | 8.0 | 19.3 | 0.00 | 0.00 | 0.00 | 56 | 1016.2 |
| 20260906192104 | 24 | 29 | 11.3 | 22.5 | 0.00 | 0.00 | 0.00 | 55 | 1016.2 |
| 20260906191104 | 25 | 77 | 9.7 | 19.3 | 0.00 | 0.00 | 0.00 | 55 | 1016.2 |
| 20260906190604 | 24 | 60 | 8.0 | 20.9 | 0.00 | 0.00 | 0.00 | 55 | 1016.2 |
| 20260906190104 | 25 | 24 | 3.2 | 19.3 | 0.00 | 0.00 | 0.00 | 57 | 1016.3 |
| 20260906185604 | 25 | 15 | 8.0 | 16.1 | 0.00 | 0.00 | 0.00 | 55 | 1016.3 |
| 20260906185104 | 24 | 25 | 9.7 | 20.9 | 0.00 | 0.00 | 0.00 | 56 | 1016.3 |
| 20260906183605 | 24 | 40 | 9.7 | 20.9 | 0.00 | 0.00 | 0.00 | 54 | 1016.4 |
| 20260906183104 | 24 | 97 | 6.4 | 16.1 | 0.00 | 0.00 | 0.00 | 54 | 1016.4 |
| 20260906182104 | 24 | 57 | 9.7 | 20.9 | 0.00 | 0.00 | 0.00 | 53 | 1016.5 |
| 20260906181604 | 24 | 61 | 8.0 | 16.1 | 0.00 | 0.00 | 0.00 | 56 | 1016.5 |
| 20260906181104 | 24 | 55 | 8.0 | 20.9 | 0.00 | 0.00 | 0.00 | 56 | 1016.5 |
| 20260906180105 | 24 | 63 | 8.0 | 22.5 | 0.00 | 0.00 | 0.00 | 58 | 1016.5 |
| 20260906175604 | 24 | 30 | 9.7 | 19.3 | 0.00 | 0.00 | 0.00 | 59 | 1016.5 |
| 20260906173603 | 23 | 43 | 4.8 | 16.1 | 0.00 | 0.00 | 0.00 | 61 | 1016.6 |
| 20260906173103 | 23 | 90 | 9.7 | 25.7 | 0.00 | 0.00 | 0.00 | 61 | 1016.6 |
| 20260906172604 | 23 | 100 | 3.2 | 12.9 | 0.00 | 0.00 | 0.00 | 65 | 1016.7 |
| 20260906172105 | 23 | 47 | 4.8 | 19.3 | 0.00 | 0.00 | 0.00 | 63 | 1016.7 |
| 20260906171104 | 23 | 65 | 9.7 | 19.3 | 0.00 | 0.00 | 0.00 | 64 | 1016.7 |
| 20260906170604 | 23 | 60 | 11.3 | 19.3 | 0.00 | 0.00 | 0.00 | 65 | 1016.7 |
| 20260906170105 | 23 | 50 | 4.8 | 20.9 | 0.00 | 0.00 | 0.00 | 68 | 1016.8 |
| 20260906165605 | 23 | 65 | 8.0 | 16.1 | 0.00 | 0.00 | 0.00 | 66 | 1016.8 |
| 20260906165104 | 23 | 109 | 8.0 | 16.1 | 0.00 | 0.00 | 0.00 | 65 | 1016.9 |
| 20260906164604 | 23 | 65 | 8.0 | 19.3 | 0.00 | 0.00 | 0.00 | 65 | 1016.9 |
| 20260906164104 | 23 | 115 | 6.4 | 14.5 | 0.00 | 0.00 | 0.00 | 66 | 1016.8 |
| 20260906163604 | 23 | 74 | 8.0 | 16.1 | 0.00 | 0.00 | 0.00 | 66 | 1016.8 |
| 20260906163104 | 22 | 67 | 4.8 | 14.5 | 0.00 | 0.00 | 0.00 | 68 | 1016.9 |
| 20260906162604 | 22 | 55 | 6.4 | 16.1 | 0.00 | 0.00 | 0.00 | 69 | 1017.0 |
| 20260906162104 | 22 | 66 | 4.8 | 14.5 | 0.00 | 0.00 | 0.00 | 69 | 1017.0 |
| 20260906161603 | 22 | 36 | 11.3 | 19.3 | 0.00 | 0.00 | 0.00 | 68 | 1017.0 |
| 20260906160604 | 22 | 154 | 3.2 | 20.9 | 0.00 | 0.00 | 0.00 | 71 | 1017.0 |
| 20260906160104 | 22 | 72 | 8.0 | 20.9 | 0.00 | 0.00 | 0.00 | 72 | 1017.1 |
| 20260906155605 | 22 | 52 | 6.4 | 11.3 | 0.00 | 0.00 | 0.00 | 71 | 1017.1 |
| 20260906155104 | 22 | 76 | 8.0 | 14.5 | 0.00 | 0.00 | 0.00 | 70 | 1017.1 |
| 20260906154604 | 23 | 45 | 6.4 | 14.5 | 0.00 | 0.00 | 0.00 | 69 | 1017.1 |
| 20260906154104 | 23 | 43 | 8.0 | 14.5 | 0.00 | 0.00 | 0.00 | 71 | 1017.2 |
| 20260906153604 | 22 | 99 | 4.8 | 16.1 | 0.00 | 0.00 | 0.00 | 73 | 1017.1 |
| 20260906153104 | 22 | 85 | 4.8 | 14.5 | 0.00 | 0.00 | 0.00 | 73 | 1017.1 |
| 20260906152604 | 22 | 95 | 6.4 | 16.1 | 0.00 | 0.00 | 0.00 | 73 | 1017.0 |
| 20260906152104 | 22 | 149 | 8.0 | 16.1 | 0.00 | 0.00 | 0.00 | 75 | 1017.0 |
| 20260906151604 | 21 | 62 | 8.0 | 19.3 | 0.00 | 0.00 | 0.00 | 74 | 1017.0 |
| 20260906151105 | 21 | 69 | 6.4 | 16.1 | 0.00 | 0.00 | 0.00 | 75 | 1017.1 |
| 20260906150604 | 21 | 52 | 4.8 | 14.5 | 0.00 | 0.00 | 0.00 | 77 | 1017.1 |
| 20260906150104 | 21 | 97 | 8.0 | 16.1 | 0.00 | 0.00 | 0.00 | 77 | 1017.1 |
| 20260906145604 | 21 | 137 | 3.2 | 9.7 | 0.00 | 0.00 | 0.00 | 77 | 1017.2 |
| 20260906145104 | 21 | 83 | 3.2 | 14.5 | 0.00 | 0.00 | 0.00 | 77 | 1017.0 |
| 20260906144105 | 21 | 68 | 3.2 | 9.7 | 0.00 | 0.00 | 0.00 | 78 | 1017.0 |
| 20260906143604 | 21 | 59 | 3.2 | 14.5 | 0.00 | 0.00 | 0.00 | 78 | 1017.0 |
| 20260906143105 | 21 | 74 | 8.0 | 19.3 | 0.00 | 0.00 | 0.00 | 77 | 1017.0 |
| 20260906142604 | 21 | 114 | 8.0 | 16.1 | 0.00 | 0.00 | 0.00 | 77 | 1016.9 |
| 20260906142104 | 21 | 46 | 11.3 | 19.3 | 0.00 | 0.00 | 0.00 | 78 | 1017.0 |
| 20260906141604 | 21 | 50 | 11.3 | 25.7 | 0.00 | 0.00 | 0.00 | 79 | 1016.9 |
| 20260906141104 | 21 | 62 | 8.0 | 24.1 | 0.00 | 0.00 | 0.00 | 78 | 1016.8 |
| 20260906140604 | 21 | 60 | 9.7 | 22.5 | 0.00 | 0.00 | 0.00 | 78 | 1016.7 |
| 20260906140104 | 21 | 35 | 8.0 | 16.1 | 0.00 | 0.00 | 0.00 | 79 | 1016.7 |
| 20260906135605 | 21 | 46 | 8.0 | 14.5 | 0.00 | 0.00 | 0.00 | 79 | 1016.6 |
| 20260906135105 | 21 | 78 | 4.8 | 16.1 | 0.00 | 0.00 | 0.00 | 79 | 1016.7 |
| 20260906134604 | 21 | 85 | 4.8 | 16.1 | 0.00 | 0.00 | 0.00 | 80 | 1016.6 |
| 20260906134105 | 21 | 102 | 6.4 | 22.5 | 0.00 | 0.00 | 0.00 | 81 | 1016.6 |
| 20260906133604 | 20 | 69 | 8.0 | 19.3 | 0.00 | 0.00 | 0.00 | 82 | 1016.6 |
| 20260906133105 | 20 | 15 | 8.0 | 12.9 | 0.00 | 0.00 | 0.00 | 84 | 1016.6 |
| 20260906132605 | 19 | 44 | 3.2 | 16.1 | 0.00 | 0.00 | 0.00 | 85 | 1016.5 |
| 20260906131604 | 18 | 83 | 3.2 | 8.0 | 0.00 | 0.00 | 0.00 | 85 | 1016.6 |
| 20260906131104 | 18 | 0 | 4.8 | 16.1 | 0.00 | 0.00 | 0.00 | 85 | 1016.5 |
| 20260906130604 | 18 | 44 | 8.0 | 20.9 | 0.00 | 0.00 | 0.00 | 85 | 1016.5 |
| 20260906130104 | 19 | 50 | 6.4 | 20.9 | 0.00 | 0.00 | 0.00 | 86 | 1016.5 |
| 20260906125604 | 18 | 37 | 4.8 | 4.8 | 0.00 | 0.00 | 0.00 | 87 | 1016.5 |
| 20260906125104 | 18 | 33 | 3.2 | 4.8 | 0.00 | 0.00 | 0.00 | 87 | 1016.5 |
| 20260906124605 | 18 | 42 | 1.6 | 9.7 | 0.00 | 0.00 | 0.00 | 87 | 1016.4 |
| 20260906124104 | 18 | 20 | 4.8 | 11.3 | 0.00 | 0.00 | 0.00 | 86 | 1016.4 |
| 20260906123604 | 18 | 35 | 4.8 | 8.0 | 0.00 | 0.00 | 0.00 | 87 | 1016.4 |
| 20260906123104 | 18 | 81 | 1.6 | 8.0 | 0.00 | 0.00 | 0.00 | 87 | 1016.4 |
| 20260906122105 | 18 | 65 | 4.8 | 8.0 | 0.00 | 0.00 | 0.00 | 87 | 1016.3 |
| 20260906121604 | 18 | 105 | 3.2 | 4.8 | 0.00 | 0.00 | 0.00 | 88 | 1016.4 |
| 20260906121105 | 18 | 114 | 1.6 | 4.8 | 0.00 | 0.00 | 0.00 | 88 | 1016.3 |
| 20260906120605 | 18 | 114 | 0.0 | 4.8 | 0.00 | 0.00 | 0.00 | 89 | 1016.2 |
| 20260906115104 | 18 | 102 | 0.0 | 3.2 | 0.00 | 0.00 | 0.00 | 92 | 1016.2 |
| 20260906114604 | 18 | 102 | 0.0 | 0.0 | 0.00 | 0.00 | 0.00 | 92 | 1016.1 |
| 20260906114104 | 17 | 102 | 0.0 | 0.0 | 0.00 | 0.00 | 0.00 | 93 | 1016.1 |
| 20260906113604 | 17 | 102 | 0.0 | 3.2 | 0.00 | 0.00 | 0.00 | 93 | 1016.0 |
| 20260906113103 | 17 | 102 | 0.0 | 3.2 | 0.00 | 0.00 | 0.00 | 92 | 1016.0 |
| 20260906112604 | 17 | 102 | 1.6 | 3.2 | 0.00 | 0.00 | 0.00 | 93 | 1016.0 |
| 20260906112104 | 16 | 105 | 0.0 | 0.0 | 0.00 | 0.00 | 0.00 | 93 | 1015.9 |
| 20260906111604 | 16 | 105 | 0.0 | 0.0 | 0.00 | 0.00 | 0.00 | 92 | 1015.9 |
| 20260906111105 | 16 | 105 | 0.0 | 0.0 | 0.00 | 0.00 | 0.00 | 92 | 1015.8 |
| 20260906110604 | 16 | 105 | 0.0 | 0.0 | 0.00 | 0.00 | 0.00 | 92 | 1015.9 |
| 20260906110104 | 16 | 105 | 0.0 | 0.0 | 0.00 | 0.00 | 0.00 | 92 | 1015.7 |
| 20260906105604 | 16 | 105 | 0.0 | 0.0 | 0.00 | 0.00 | 0.00 | 91 | 1015.7 |
| 20260906105104 | 16 | 105 | 0.0 | 0.0 | 0.00 | 0.00 | 0.00 | 91 | 1015.6 |
| 20260906104103 | 16 | 105 | 0.0 | 1.6 | 0.00 | 0.00 | 0.00 | 91 | 1015.4 |
| 20260906103104 | 16 | 105 | 0.0 | 3.2 | 0.00 | 0.00 | 0.00 | 91 | 1015.3 |
| 20260906102604 | 17 | 106 | 0.0 | 0.0 | 0.00 | 0.00 | 0.00 | 90 | 1015.2 |
| 20260906101603 | 17 | 106 | 0.0 | 3.2 | 0.00 | 0.00 | 0.00 | 90 | 1015.1 |
| 20260906101103 | 17 | 106 | 0.0 | 0.0 | 0.00 | 0.00 | 0.00 | 90 | 1015.1 |
| 20260906100604 | 17 | 106 | 0.0 | 0.0 | 0.00 | 0.00 | 0.00 | 90 | 1015.0 |
| 20260906100104 | 17 | 106 | 0.0 | 3.2 | 0.00 | 0.00 | 0.00 | 90 | 1015.0 |
| 20260906095604 | 17 | 73 | 0.0 | 4.8 | 0.00 | 0.00 | 0.00 | 90 | 1015.0 |
| 20260906094605 | 17 | 74 | 1.6 | 9.7 | 0.00 | 0.00 | 0.00 | 90 | 1014.9 |
| 20260906094105 | 17 | 79 | 1.6 | 4.8 | 0.00 | 0.00 | 0.00 | 90 | 1014.8 |
| 20260906093603 | 17 | 77 | 1.6 | 4.8 | 0.00 | 0.00 | 0.00 | 90 | 1014.7 |
| 20260906093104 | 17 | 59 | 4.8 | 9.7 | 0.00 | 0.00 | 0.00 | 90 | 1014.7 |
| 20260906092604 | 17 | 93 | 1.6 | 4.8 | 0.00 | 0.00 | 0.00 | 90 | 1014.7 |
| 20260906092104 | 17 | 84 | 6.4 | 14.5 | 0.00 | 0.00 | 0.00 | 90 | 1014.7 |
| 20260906091605 | 17 | 80 | 6.4 | 14.5 | 0.00 | 0.00 | 0.00 | 90 | 1014.7 |
| 20260906091105 | 17 | 89 | 3.2 | 8.0 | 0.00 | 0.00 | 0.00 | 90 | 1014.6 |
| 20260906090104 | 17 | 99 | 3.2 | 4.8 | 0.00 | 0.00 | 0.00 | 90 | 1014.5 |
| 20260906085604 | 17 | 99 | 1.6 | 4.8 | 0.00 | 0.00 | 0.00 | 89 | 1014.5 |
| 20260906085104 | 17 | 106 | 0.0 | 3.2 | 0.00 | 0.00 | 0.00 | 90 | 1014.6 |
| 20260906084604 | 17 | 106 | 0.0 | 4.8 | 0.00 | 0.00 | 0.00 | 90 | 1014.7 |
| 20260906084105 | 17 | 105 | 1.6 | 4.8 | 0.00 | 0.00 | 0.00 | 90 | 1014.7 |
| 20260906083604 | 17 | 105 | 0.0 | 0.0 | 0.00 | 0.00 | 0.00 | 89 | 1014.7 |
| 20260906083104 | 17 | 103 | 0.0 | 0.0 | 0.00 | 0.00 | 0.00 | 89 | 1014.6 |
| 20260906082605 | 17 | 103 | 0.0 | 0.0 | 0.00 | 0.00 | 0.00 | 89 | 1014.5 |
| 20260906082105 | 17 | 103 | 0.0 | 0.0 | 0.00 | 0.00 | 0.00 | 89 | 1014.4 |
| 20260906081604 | 17 | 103 | 0.0 | 0.0 | 0.00 | 0.00 | 0.00 | 89 | 1014.4 |
| 20260906081104 | 17 | 103 | 0.0 | 0.0 | 0.00 | 0.00 | 0.00 | 89 | 1014.5 |
| 20260906080604 | 17 | 103 | 0.0 | 0.0 | 0.00 | 0.00 | 0.00 | 89 | 1014.3 |
| 20260906080104 | 17 | 103 | 0.0 | 0.0 | 0.00 | 0.00 | 0.00 | 89 | 1014.3 |
| 20260906075604 | 17 | 103 | 0.0 | 0.0 | 0.00 | 0.00 | 0.00 | 89 | 1014.2 |
| 20260906075104 | 17 | 103 | 0.0 | 4.8 | 0.00 | 0.00 | 0.00 | 89 | 1014.2 |
| 20260906074104 | 17 | 86 | 0.0 | 3.2 | 0.00 | 0.00 | 0.00 | 89 | 1014.1 |
| 20260906073604 | 17 | 85 | 1.6 | 4.8 | 0.00 | 0.00 | 0.00 | 89 | 1014.2 |
| 20260906072605 | 17 | 115 | 0.0 | 3.2 | 0.00 | 0.00 | 0.00 | 90 | 1014.3 |
| 20260906072104 | 17 | 114 | 1.6 | 4.8 | 0.00 | 0.00 | 0.00 | 90 | 1014.2 |
| 20260906071604 | 17 | 105 | 1.6 | 4.8 | 0.00 | 0.00 | 0.00 | 90 | 1014.2 |
| 20260906070104 | 18 | 59 | 0.0 | 0.0 | 0.00 | 0.00 | 0.00 | 90 | 1014.3 |
| 20260906065103 | 18 | 59 | 0.0 | 0.0 | 0.00 | 0.00 | 0.00 | 90 | 1014.2 |
| 20260906064604 | 18 | 59 | 0.0 | 0.0 | 0.00 | 0.00 | 0.00 | 90 | 1014.3 |
| 20260906064105 | 18 | 59 | 0.0 | 0.0 | 0.00 | 0.00 | 0.00 | 90 | 1014.4 |
| 20260906063604 | 18 | 59 | 0.0 | 0.0 | 0.00 | 0.00 | 0.00 | 90 | 1014.3 |
| 20260906063103 | 18 | 59 | 0.0 | 0.0 | 0.00 | 0.00 | 0.00 | 89 | 1014.4 |
| 20260906062605 | 18 | 59 | 0.0 | 0.0 | 0.00 | 0.00 | 0.00 | 89 | 1014.4 |
| 20260906062105 | 18 | 59 | 0.0 | 0.0 | 0.00 | 0.00 | 0.00 | 89 | 1014.3 |
| 20260906061604 | 18 | 59 | 0.0 | 0.0 | 0.00 | 0.00 | 0.00 | 89 | 1014.3 |
| 20260906060604 | 18 | 59 | 0.0 | 0.0 | 0.00 | 0.00 | 0.00 | 89 | 1014.4 |
| 20260906060104 | 18 | 59 | 0.0 | 0.0 | 0.00 | 0.00 | 0.00 | 89 | 1014.3 |
| 20260906055604 | 18 | 59 | 0.0 | 3.2 | 0.00 | 0.00 | 0.00 | 90 | 1014.4 |
| 20260906055104 | 18 | 59 | 1.6 | 4.8 | 0.00 | 0.00 | 0.00 | 90 | 1014.4 |
| 20260906054605 | 18 | 32 | 1.6 | 4.8 | 0.00 | 0.00 | 0.00 | 91 | 1014.4 |
| 20260906054105 | 18 | 53 | 0.0 | 0.0 | 0.00 | 0.00 | 0.00 | 90 | 1014.5 |
| 20260906053603 | 18 | 53 | 0.0 | 0.0 | 0.00 | 0.00 | 0.00 | 91 | 1014.6 |
| 20260906053104 | 18 | 53 | 0.0 | 0.0 | 0.00 | 0.00 | 0.00 | 91 | 1014.6 |
| 20260906052605 | 17 | 53 | 0.0 | 0.0 | 0.00 | 0.00 | 0.00 | 91 | 1014.6 |
| 20260906052105 | 17 | 53 | 0.0 | 4.8 | 0.00 | 0.00 | 0.00 | 91 | 1014.5 |
| 20260906051104 | 17 | 54 | 0.0 | 1.6 | 0.00 | 0.00 | 0.00 | 91 | 1014.5 |
| 20260906050104 | 17 | 53 | 0.0 | 0.0 | 0.00 | 0.00 | 0.00 | 91 | 1014.3 |
| 20260906045605 | 17 | 53 | 0.0 | 0.0 | 0.00 | 0.00 | 0.00 | 91 | 1014.4 |
| 20260906045104 | 17 | 53 | 0.0 | 0.0 | 0.00 | 0.00 | 0.00 | 91 | 1014.5 |
| 20260906044603 | 17 | 53 | 0.0 | 0.0 | 0.00 | 0.00 | 0.00 | 91 | 1014.5 |
| 20260906043605 | 17 | 53 | 0.0 | 0.0 | 0.00 | 0.00 | 0.00 | 91 | 1014.5 |
| 20260906042604 | 17 | 53 | 0.0 | 0.0 | 0.00 | 0.00 | 0.00 | 91 | 1014.5 |
| 20260906042104 | 17 | 53 | 0.0 | 0.0 | 0.00 | 0.00 | 0.00 | 91 | 1014.5 |
| 20260906041604 | 17 | 53 | 0.0 | 0.0 | 0.00 | 0.00 | 0.00 | 90 | 1014.5 |
| 20260906041104 | 17 | 53 | 0.0 | 1.6 | 0.00 | 0.00 | 0.00 | 90 | 1014.5 |
| 20260906040604 | 17 | 54 | 0.0 | 3.2 | 0.00 | 0.00 | 0.00 | 90 | 1014.4 |
| 20260906040105 | 17 | 45 | 0.0 | 0.0 | 0.00 | 0.00 | 0.00 | 90 | 1014.3 |
| 20260906035604 | 17 | 45 | 0.0 | 0.0 | 0.00 | 0.00 | 0.00 | 90 | 1014.3 |
| 20260906035103 | 17 | 45 | 0.0 | 0.0 | 0.00 | 0.00 | 0.00 | 90 | 1014.3 |
| 20260906034604 | 17 | 45 | 0.0 | 0.0 | 0.00 | 0.00 | 0.00 | 90 | 1014.3 |
| 20260906034104 | 17 | 45 | 0.0 | 0.0 | 0.00 | 0.00 | 0.00 | 89 | 1014.3 |
| 20260906033604 | 17 | 45 | 0.0 | 1.6 | 0.00 | 0.00 | 0.00 | 89 | 1014.3 |
| 20260906032603 | 17 | 45 | 0.0 | 3.2 | 0.00 | 0.00 | 0.00 | 89 | 1014.3 |
| 20260906032104 | 17 | 45 | 0.0 | 0.0 | 0.00 | 0.00 | 0.00 | 89 | 1014.2 |
| 20260906031604 | 17 | 45 | 0.0 | 0.0 | 0.00 | 0.00 | 0.00 | 88 | 1014.0 |
| 20260906031104 | 17 | 45 | 0.0 | 0.0 | 0.00 | 0.00 | 0.00 | 88 | 1014.0 |
| 20260906030603 | 17 | 45 | 0.0 | 0.0 | 0.00 | 0.00 | 0.00 | 88 | 1013.9 |
| 20260906025604 | 18 | 45 | 0.0 | 0.0 | 0.00 | 0.00 | 0.00 | 87 | 1013.8 |
| 20260906025104 | 18 | 45 | 0.0 | 0.0 | 0.00 | 0.00 | 0.00 | 87 | 1013.8 |
| 20260906024605 | 18 | 45 | 0.0 | 0.0 | 0.00 | 0.00 | 0.00 | 87 | 1013.9 |
| 20260906023603 | 18 | 45 | 0.0 | 0.0 | 0.00 | 0.00 | 0.00 | 86 | 1013.8 |
| 20260906023104 | 18 | 45 | 0.0 | 0.0 | 0.00 | 0.00 | 0.00 | 86 | 1013.9 |
| 20260906022104 | 18 | 45 | 0.0 | 0.0 | 0.00 | 0.00 | 0.00 | 85 | 1013.9 |
| 20260906021603 | 18 | 45 | 0.0 | 0.0 | 0.00 | 0.00 | 0.00 | 85 | 1014.0 |
| 20260906021104 | 18 | 45 | 0.0 | 0.0 | 0.00 | 0.00 | 0.00 | 84 | 1013.9 |
| 20260906020605 | 19 | 45 | 0.0 | 0.0 | 0.00 | 0.00 | 0.00 | 84 | 1013.8 |
| 20260906020104 | 19 | 45 | 0.0 | 4.8 | 0.00 | 0.00 | 0.00 | 84 | 1013.8 |
| 20260906015604 | 19 | 45 | 0.0 | 0.0 | 0.00 | 0.00 | 0.00 | 83 | 1013.8 |
| 20260906015104 | 19 | 45 | 0.0 | 0.0 | 0.00 | 0.00 | 0.00 | 82 | 1013.8 |
| 20260906014604 | 20 | 45 | 0.0 | 0.0 | 0.00 | 0.00 | 0.00 | 81 | 1013.7 |
| 20260906013604 | 20 | 45 | 0.0 | 0.0 | 0.00 | 0.00 | 0.00 | 80 | 1013.7 |
| 20260906013103 | 20 | 45 | 0.0 | 0.0 | 0.00 | 0.00 | 0.00 | 79 | 1013.7 |
| 20260906012604 | 20 | 45 | 0.0 | 0.0 | 0.00 | 0.00 | 0.00 | 78 | 1013.7 |
| 20260906012104 | 20 | 40 | 0.0 | 1.6 | 0.00 | 0.00 | 0.00 | 78 | 1013.5 |
| 20260906011604 | 21 | 44 | 0.0 | 3.2 | 0.00 | 0.00 | 0.00 | 77 | 1013.5 |
| 20260906011104 | 21 | 40 | 1.6 | 3.2 | 0.00 | 0.00 | 0.00 | 77 | 1013.6 |
| 20260906010603 | 21 | 40 | 3.2 | 4.8 | 0.00 | 0.00 | 0.00 | 77 | 1013.6 |
| 20260906010104 | 21 | 40 | 1.6 | 3.2 | 0.00 | 0.00 | 0.00 | 77 | 1013.4 |
| 20260906005604 | 21 | 40 | 0.0 | 0.0 | 0.00 | 0.00 | 0.00 | 76 | 1013.4 |
| 20260906004604 | 21 | 43 | 3.2 | 4.8 | 0.00 | 0.00 | 0.00 | 76 | 1013.2 |
| 20260906004104 | 21 | 58 | 3.2 | 4.8 | 0.00 | 0.00 | 0.00 | 76 | 1013.2 |
| 20260906003104 | 21 | 23 | 1.6 | 9.7 | 0.00 | 0.00 | 0.00 | 75 | 1013.1 |
| 20260906002603 | 21 | 40 | 0.0 | 1.6 | 0.00 | 0.00 | 0.00 | 75 | 1013.1 |
| 20260906002105 | 21 | 31 | 1.6 | 4.8 | 0.00 | 0.00 | 0.00 | 75 | 1013.1 |
| 20260906001604 | 21 | 34 | 3.2 | 8.0 | 0.00 | 0.00 | 0.00 | 75 | 1013.1 |
| 20260906001103 | 21 | 51 | 3.2 | 8.0 | 0.00 | 0.00 | 0.00 | 75 | 1013.1 |
| 20260906000604 | 21 | 26 | 4.8 | 9.7 | 0.00 | 0.00 | 0.00 | 75 | 1013.1 |
| 20260906000105 | 21 | 38 | 3.2 | 8.0 | 0.00 | 0.00 | 0.00 | 75 | 1013.0 |
| 20260905235603 | 21 | 30 | 3.2 | 8.0 | 0.00 | 0.00 | 0.00 | 75 | 1012.9 |
| 20260905235104 | 21 | 19 | 3.2 | 8.0 | 0.00 | 0.00 | 0.00 | 75 | 1012.8 |
| 20260905234604 | 21 | 48 | 0.0 | 4.8 | 0.00 | 0.00 | 0.00 | 74 | 1012.7 |
| 20260905234104 | 21 | 51 | 3.2 | 8.0 | 0.00 | 0.00 | 0.00 | 74 | 1012.6 |
| 20260905233603 | 21 | 33 | 3.2 | 8.0 | 0.00 | 0.00 | 0.00 | 74 | 1012.6 |
| 20260905232604 | 21 | 22 | 4.8 | 9.7 | 0.00 | 0.00 | 0.00 | 74 | 1012.6 |
| 20260905232103 | 21 | 31 | 4.8 | 14.5 | 0.00 | 0.00 | 0.00 | 74 | 1012.6 |
| 20260905231604 | 22 | 22 | 3.2 | 8.0 | 0.00 | 0.00 | 0.00 | 75 | 1012.6 |
| 20260905230604 | 22 | 23 | 4.8 | 9.7 | 0.00 | 0.00 | 0.00 | 74 | 1012.5 |
| 20260905230104 | 22 | 31 | 4.8 | 12.9 | 0.00 | 0.00 | 0.00 | 73 | 1012.5 |
| 20260905225603 | 22 | 100 | 1.6 | 4.8 | 0.00 | 0.00 | 0.00 | 72 | 1012.4 |
| 20260905225104 | 22 | 359 | 3.2 | 8.0 | 0.00 | 0.00 | 0.00 | 72 | 1012.4 |
| 20260905224604 | 22 | 20 | 4.8 | 12.9 | 0.00 | 0.00 | 0.00 | 71 | 1012.4 |
| 20260905224104 | 22 | 30 | 1.6 | 8.0 | 0.00 | 0.00 | 0.00 | 71 | 1012.3 |
| 20260905223603 | 22 | 20 | 3.2 | 4.8 | 0.00 | 0.00 | 0.00 | 70 | 1012.1 |
| 20260905223105 | 22 | 16 | 4.8 | 8.0 | 0.00 | 0.00 | 0.00 | 70 | 1012.1 |
| 20260905222604 | 22 | 28 | 4.8 | 16.1 | 0.00 | 0.00 | 0.00 | 70 | 1012.2 |
| 20260905222104 | 23 | 9 | 1.6 | 4.8 | 0.00 | 0.00 | 0.00 | 70 | 1012.1 |
| 20260905221604 | 23 | 17 | 3.2 | 4.8 | 0.00 | 0.00 | 0.00 | 70 | 1012.0 |